{"data":{"norad_id":47122,"intl_designator":"2020-088A","name":"STARLINK-1777","alt_names":[],"object_type":"PAYLOAD","status":"ACTIVE","operator":null,"country":"US","launch_date":"2020-11-25","launch_site_code":"AFETR","launch_vehicle":null,"mission":null,"orbit_class":"UNKNOWN","rcs_meters":null,"size_class":null,"mass_kg":null,"dimensions":null,"purposes":["comms"],"wikipedia_slug":null,"has_3d_model":false,"image_url":null,"decayed_at":null,"tle_current":{"epoch":"2026-05-24T17:33:05.144256Z","epoch_age_seconds":105185,"freshness":"FRESH","line1":"1 47122U 20088A   26144.73130954  .00061012  00000+0  58871-3 0  9994","line2":"2 47122  53.0467 273.6437 0003793 238.3668 121.6977 15.65916882303957","mean_motion":15.65916882,"eccentricity":0.0003793,"inclination_deg":53.0467,"raan_deg":273.6437,"arg_perigee_deg":238.3668,"mean_anomaly_deg":121.6977,"bstar":0.00058871,"rev_number":30395,"period_min":91.958903857069,"perigee_km":368.04330979371,"apogee_km":373.16290403882,"semimajor_km":6748.7401069163,"source":"CELESTRAK","updated_at":"2026-05-25T13:38:16.521072Z"}}}